Location: Bear Branch Nature Center
(39.6445°N, 76.9901°W)
Time: 19:47:45
(UTC-04:00)

Daily predictions for brighter satellites

Satellite Brightness Start Highest point End
(mag) Time Altitude Azimuth Time Altitude Azimuth Time Altitude Azimuth
Cosmos 2221 3.2 21:07:30 10° NNW 21:11:41 56° W 21:15:52 10° S
ATLAS 5 CENTAUR R/B 2.9 21:08:54 10° SW 21:13:37 51° NW 21:18:43 10° NNE
Cosmos 1378 3.4 21:13:37 10° SSW 21:17:21 75° W 21:21:06 10° N
Cosmos 968 Rocket 3.6 21:13:28 10° S 21:18:31 57° ESE 21:23:38 10° NNE
Cosmos 1766 Rocket 3.9 21:14:43 10° SSW 21:19:08 71° W 21:23:33 10° N
DELTA 2 R/B (1) 3.6 21:22:11 10° W 21:27:45 89° N 21:33:19 10° E
Cosmos 332 Rocket 4.0 21:23:42 10° NNW 21:28:32 75° WSW 21:33:22 10° S
ATLAS CENTAUR R/B 1.6 21:26:44 10° NW 21:31:18 76° WSW 21:35:23 10° SSE
CZ-4 SHROUD 4.0 21:30:32 12° SE 21:33:08 36° ENE 21:36:03 10° N
Envisat 3.1 21:28:11 10° SSE 21:33:12 67° ENE 21:38:16 10° N
Cosmos 2266 Rocket 4.4 21:27:28 10° SSE 21:33:25 45° E 21:39:18 10° NNE
Cosmos 1553 Rocket 4.1 21:27:42 10° N 21:34:09 79° E 21:40:29 10° S
Cosmos 1515 Rocket 3.7 21:30:40 10° N 21:35:04 57° E 21:39:22 10° SSE
YAOGAN 6 3.8 21:34:09 13° SE 21:36:49 27° ENE 21:39:56 10° NNE
ARGOS 4.3 21:33:04 11° ESE 21:37:23 28° ENE 21:41:56 10° N
Cosmos 2219 4.5 21:35:03 11° SSE 21:39:06 21° E 21:43:18 10° NE
Nimbus 7 Rocket 4.4 21:37:55 10° NNE 21:43:49 82° ESE 21:49:40 10° SSW
Cosmos 2292 4.1 21:41:11 10° N 21:44:13 87° E 21:47:08 11° S
ERS-1 Rocket 3.7 21:40:53 10° S 21:45:46 53° W 21:50:43 10° NNW
Cosmos 405 3.8 21:44:04 10° N 21:47:29 37° ENE 21:49:43 18° SE
Cosmos 1441 Rocket 3.1 21:43:57 10° S 21:47:45 89° E 21:51:32 10° N
Cosmos 1777 Rocket 4.0 21:43:39 10° S 21:48:51 66° ESE 21:54:05 10° NNE
Cosmos 1939 Rocket 3.5 21:50:00 10° S 21:53:54 54° W 21:57:46 10° NNW
H-2A R/B 3.7 21:51:09 12° ESE 21:54:31 21° ENE 21:58:25 10° NNE
Cosmos 2322 Rocket 2.4 21:49:54 10° NNW 21:55:29 68° WSW 22:00:36 12° S
SPOT 5 2.8 21:57:16 13° S 22:01:16 82° WSW 22:05:58 10° NNW
SL-16 R/B 2.6 21:58:24 10° NNW 22:04:00 62° WSW 22:08:55 14° S
Cosmos 1437 3.2 22:02:32 24° SSE 22:04:04 41° E 22:07:12 10° NNE
Cosmos 2151 3.1 22:01:49 16° SSE 22:04:57 54° E 22:09:04 10° NNE
Cosmos 371 Rocket 4.1 22:00:57 10° NNW 22:05:34 47° WSW 22:09:58 11° S
Meteor 2-2 Rocket 4.4 21:59:50 10° N 22:05:51 86° W 22:11:18 13° S
Cosmos 1980 Rocket 4.3 22:01:54 10° NW 22:06:01 21° W 22:10:08 10° SSW
Cosmos 1908 3.2 22:02:11 10° N 22:06:05 83° E 22:08:46 19° S
SPOT 1/Viking Rocket 3.7 22:02:26 18° SSE 22:06:07 59° ENE 22:11:11 10° N
Cosmos 1726 3.9 22:03:52 10° NNE 22:06:28 17° ENE 22:07:30 16° E
NOSS 3-1 (C) 4.2 22:03:18 16° SSE 22:06:47 28° ESE 22:11:59 10° NE
Cosmos 2360 Rocket 2.5 22:01:34 10° NNW 22:07:07 54° ENE 22:10:47 21° SE
Cosmos 1151 Rocket 2.9 22:05:10 10° N 22:09:29 80° E 22:12:25 20° SSE
Cosmos 1680 Rocket 3.7 22:11:38 10° N 22:16:49 58° ENE 22:19:50 25° SE
OE (NEXTSAT) 4.5 22:14:50 10° WNW 22:18:25 74° NNE 22:20:08 28° ESE
H-2A R/B 3.9 22:15:07 10° SSW 22:19:02 29° W 22:23:00 10° NW
Cosmos 923 Rocket 3.9 22:14:26 10° NNW 22:19:41 82° ENE 22:22:50 24° SSE
Cosmos 1707 Rocket 4.2 22:17:32 10° N 22:21:37 38° ENE 22:23:16 28° ESE
Cosmos 1666 Rocket 4.2 22:23:05 28° SE 22:24:33 37° E 22:28:37 10° NNE
Cosmos 1437 Rocket 3.7 22:21:57 10° NNW 22:25:34 43° W 22:28:14 17° SSW
Cosmos 1674 3.6 22:26:22 10° SSW 22:30:02 46° W 22:33:46 10° N
Cosmos 2227 Rocket 4.0 22:31:10 14° E 22:31:10 14° E 22:33:40 10° ENE
Cosmos 1833 4.4 22:25:16 10° SSW 22:30:59 74° WNW 22:36:41 10° NNE
Cosmos 1898 Rocket 4.3 22:29:54 28° SE 22:31:16 32° E 22:35:49 10° NE
Cosmos 2333 Rocket 4.1 22:29:51 10° N 22:33:49 19° NE 22:37:13 12° E
CZ-4B R/B 3.8 22:29:35 10° N 22:34:52 70° WNW 22:40:02 10° SSW
CZ-4C R/B 3.3 22:34:28 41° ESE 22:35:17 52° ENE 22:38:41 10° N
Cosmos 1300 2.8 22:34:32 10° N 22:38:20 57° E 22:39:16 43° SE
SL-08 RB Rocket 3.6 22:36:33 32° SSE 22:38:36 85° ENE 22:43:06 10° NNW
Cosmos 2058 2.8 22:39:47 31° S 22:41:42 88° E 22:45:49 10° N
Cosmos 1328 4.2 22:40:36 21° SSW 22:43:08 60° W 22:47:03 10° N
Cosmos 1626 4.3 22:44:32 14° ENE 22:44:32 14° ENE 22:45:56 10° NE
COSMOS 2428 3.0 22:40:21 10° NNW 22:45:56 54° ENE 22:48:25 31° SE
Meteor 1-4 Rocket 3.5 22:44:46 10° N 22:48:15 34° ENE 22:48:33 34° E
USA 229 DEB 4.5 22:41:56 10° SW 22:48:41 54° NW 22:55:32 10° NNE
USA 229 4.5 22:42:02 10° SW 22:48:47 54° NW 22:55:38 10° NNE
DELTA 2 DEB (DPAF) 4.1 22:49:23 39° SSE 22:51:02 89° ENE 22:55:33 10° NNW
Cosmos 2242 Rocket 3.9 22:48:40 10° N 22:53:01 50° E 22:54:01 42° ESE
Cosmos 304 Rocket 4.1 22:48:21 10° NNW 22:53:07 60° WSW 22:55:08 32° S
Landsat 7 3.7 22:51:46 39° SSE 22:53:35 86° ENE 22:58:22 10° NNW
SL-23 DEB 3.6 22:50:04 10° NW 22:54:33 76° NE 22:55:09 56° ESE
USA 32 4.1 22:51:25 10° N 22:56:39 62° E 22:58:25 40° SSE
Cosmos 2297 Rocket 3.9 22:59:14 17° E 22:59:14 17° E 23:02:06 10° ENE
Spot 4 4.2 22:57:34 39° ESE 22:58:57 53° ENE 23:03:41 10° N
IGS 5A 3.5 23:00:13 51° SE 23:00:59 63° ENE 23:05:07 10° N
Cosmos 1455 3.7 22:58:20 10° NNE 23:01:18 23° ENE 23:01:18 23° ENE
SeaSat 1 3.9 23:01:34 20° E 23:03:36 26° NE 23:07:41 10° N
Cosmos 2237 4.1 23:01:54 10° NNW 23:07:41 86° ENE 23:09:42 42° SSE
NOSS 3-1 (A) 3.3 23:05:11 30° S 23:08:10 63° ESE 23:14:31 10° NE
Terra 1.7 23:08:07 49° SSE 23:09:26 87° ENE 23:14:13 10° NNW
Cosmos 2219 Rocket 2.9 23:05:29 10° N 23:10:49 43° ENE 23:12:41 32° ESE
DELTA 2 R/B (1) 3.5 23:08:41 10° W 23:14:10 64° SSW 23:15:32 48° SE
SL-14 R/B 3.8 23:13:40 40° SW 23:14:45 54° W 23:18:40 10° N
Cosmos 292 Rocket 4.0 23:11:04 10° N 23:15:45 55° ENE 23:16:37 47° ESE
Cosmos 1703 3.1 23:16:03 79° SE 23:16:12 81° E 23:20:07 10° N
ARGOS 4.3 23:14:35 22° SSW 23:17:27 37° W 23:22:26 10° NNW
Cosmos 2298 Rocket 4.1 23:15:37 30° SSW 23:18:20 78° WNW 23:23:41 10° NNE
Cosmos 1862 Rocket 4.0 23:15:32 10° N 23:19:43 43° ENE 23:19:53 43° E
CARTOSAT-1 3.7 23:20:21 52° SSW 23:21:09 64° W 23:25:27 10° NNW
Cosmos 2219 3.9 23:17:13 10° SW 23:22:48 52° WNW 23:28:26 10° NNE
Cosmos 1271 Rocket 2.6 23:22:39 10° NNW 23:26:28 78° W 23:26:28 78° W
Cosmos 1633 Rocket 3.8 23:26:23 34° SW 23:27:50 49° W 23:32:07 10° N
Sich 1 4.0 23:28:02 30° SW 23:29:41 44° W 23:33:56 10° N
Cosmos 2333 4.1 23:23:59 10° NNW 23:29:44 84° WSW 23:31:14 51° SSE
ATLAS 2AS CENTAUR R/B 3.3 23:29:35 38° SE 23:30:54 40° ESE 23:38:11 10° NE
H-2A R/B 2.6 23:31:47 37° SSW 23:33:29 51° W 23:38:45 10° NNW
Cosmos 2237 Rocket 2.8 23:30:50 10° NNW 23:36:20 46° ENE 23:37:51 38° ESE
Cosmos 1937 Rocket 3.4 23:34:59 51° SSW 23:36:23 88° WNW 23:41:37 10° NNE
Cosmos 2082 3.9 23:36:11 50° SE 23:36:42 51° ESE 23:42:14 10° NNE
Cosmos 1726 3.8 23:38:38 10° NNW 23:41:50 26° W 23:42:11 26° W
Nadezhda 1 Rocket 3.9 23:39:50 10° N 23:45:55 78° W 23:47:40 49° S
ALOS 2 4.2 23:45:44 23° ENE 23:45:59 23° ENE 23:49:24 10° NNE
Cosmos 2360 Rocket 4.0 23:46:38 10° NW 23:50:37 20° W 23:52:34 17° SW
Cosmos 990 Rocket 3.9 23:53:10 66° SSW 23:53:55 86° WNW 23:59:05 10° NNE
